Time,TemperatureF,DewpointF,PressureIn,WindDirection,WindDirectionDegrees,WindSpeedMPH,WindSpeedGustMPH,Humidity,HourlyPrecipIn,Conditions,Clouds,dailyrainin,SoftwareType,DateUTC
2013-10-21 00:02:00,54.9,44.0,29.92,SW,217,7.0,16.0,68,0.00,,,0.00,weatherlink.com 1.10,2013-10-21 04:02:00,
2013-10-21 00:17:00,54.8,44.0,29.92,SSE,165,10.0,17.0,68,0.00,,,0.00,weatherlink.com 1.10,2013-10-21 04:17:00,
2013-10-21 00:32:00,54.6,45.0,29.92,SSW,208,10.0,16.0,69,0.00,,,0.00,weatherlink.com 1.10,2013-10-21 04:32:00,
2013-10-21 00:48:00,54.3,44.0,29.91,SW,218,8.0,18.0,69,0.00,,,0.00,weatherlink.com 1.10,2013-10-21 04:48:00,
2013-10-21 01:03:00,54.0,44.0,29.91,SSW,202,6.0,17.0,70,0.00,,,0.00,weatherlink.com 1.10,2013-10-21 05:03:00,
2013-10-21 01:18:00,53.7,44.0,29.91,SW,231,10.0,17.0,71,0.00,,,0.00,weatherlink.com 1.10,2013-10-21 05:18:00,
2013-10-21 01:35:00,53.5,44.0,29.91,SW,216,11.0,18.0,71,0.00,,,0.00,weatherlink.com 1.10,2013-10-21 05:35:00,
2013-10-21 01:50:00,53.1,44.0,29.91,SW,221,13.0,18.0,72,0.00,,,0.00,weatherlink.com 1.10,2013-10-21 05:50:00,
2013-10-21 02:05:00,52.7,44.0,29.91,SW,233,8.0,17.0,73,0.00,,,0.00,weatherlink.com 1.10,2013-10-21 06:05:00,
2013-10-21 02:19:00,52.5,44.0,29.91,South,190,9.0,16.0,73,0.00,,,0.00,weatherlink.com 1.10,2013-10-21 06:19:00,
2013-10-21 02:35:00,51.9,44.0,29.91,SSW,205,9.0,15.0,74,0.00,,,0.00,weatherlink.com 1.10,2013-10-21 06:35:00,
2013-10-21 02:49:00,51.5,44.0,29.91,South,182,8.0,13.0,75,0.00,,,0.00,weatherlink.com 1.10,2013-10-21 06:49:00,
2013-10-21 03:05:00,51.3,44.0,29.91,SSW,196,7.0,16.0,76,0.00,,,0.00,weatherlink.com 1.10,2013-10-21 07:05:00,
2013-10-21 03:20:00,51.0,44.0,29.91,SSW,207,9.0,17.0,76,0.00,,,0.00,weatherlink.com 1.10,2013-10-21 07:20:00,
2013-10-21 03:36:00,50.9,44.0,29.91,SSW,198,7.0,17.0,76,0.00,,,0.00,weatherlink.com 1.10,2013-10-21 07:36:00,
2013-10-21 03:52:00,50.5,44.0,29.91,South,191,9.0,14.0,77,0.00,,,0.00,weatherlink.com 1.10,2013-10-21 07:52:00,
2013-10-21 04:06:00,50.4,43.0,29.90,SSW,207,6.0,13.0,77,0.00,,,0.00,weatherlink.com 1.10,2013-10-21 08:06:00,
2013-10-21 04:21:00,50.4,43.0,29.90,SSW,203,7.0,17.0,77,0.00,,,0.00,weatherlink.com 1.10,2013-10-21 08:21:00,
2013-10-21 04:36:00,50.5,44.0,29.90,SW,215,9.0,15.0,77,0.00,,,0.00,weatherlink.com 1.10,2013-10-21 08:36:00,
2013-10-21 04:52:00,50.6,44.0,29.90,SSW,198,7.0,16.0,77,0.00,,,0.00,weatherlink.com 1.10,2013-10-21 08:52:00,
2013-10-21 05:07:00,50.5,44.0,29.90,SSW,210,8.0,15.0,78,0.00,,,0.00,weatherlink.com 1.10,2013-10-21 09:07:00,
2013-10-21 05:22:00,50.5,44.0,29.90,SSW,196,5.0,16.0,78,0.00,,,0.00,weatherlink.com 1.10,2013-10-21 09:22:00,
2013-10-21 05:37:00,50.3,44.0,29.91,SW,223,6.0,13.0,78,0.00,,,0.00,weatherlink.com 1.10,2013-10-21 09:37:00,
2013-10-21 05:53:00,49.8,44.0,29.91,SW,232,5.0,13.0,79,0.00,,,0.00,weatherlink.com 1.10,2013-10-21 09:53:00,
2013-10-21 06:07:00,49.5,43.0,29.90,SSW,202,7.0,13.0,79,0.00,,,0.00,weatherlink.com 1.10,2013-10-21 10:07:00,
2013-10-21 06:23:00,49.3,43.0,29.91,SSW,192,8.0,12.0,80,0.00,,,0.00,weatherlink.com 1.10,2013-10-21 10:23:00,
2013-10-21 06:38:00,49.2,43.0,29.91,SSW,212,7.0,13.0,80,0.00,,,0.00,weatherlink.com 1.10,2013-10-21 10:38:00,
2013-10-21 06:53:00,49.0,43.0,29.91,SSW,213,4.0,12.0,81,0.00,,,0.00,weatherlink.com 1.10,2013-10-21 10:53:00,
2013-10-21 07:10:00,49.1,44.0,29.91,SSW,196,6.0,12.0,81,0.00,,,0.00,weatherlink.com 1.10,2013-10-21 11:10:00,
2013-10-21 07:25:00,49.0,43.0,29.91,SSW,208,2.0,12.0,81,0.00,,,0.00,weatherlink.com 1.10,2013-10-21 11:25:00,
2013-10-21 07:40:00,48.9,43.0,29.91,SSW,204,11.0,12.0,81,0.00,,,0.00,weatherlink.com 1.10,2013-10-21 11:40:00,
2013-10-21 07:55:00,48.7,43.0,29.91,SSW,206,7.0,10.0,82,0.00,,,0.00,weatherlink.com 1.10,2013-10-21 11:55:00,
2013-10-21 08:10:00,48.4,43.0,29.91,SW,223,10.0,12.0,82,0.00,,,0.00,weatherlink.com 1.10,2013-10-21 12:10:00,
2013-10-21 08:25:00,48.3,43.0,29.91,SSW,202,9.0,11.0,82,0.00,,,0.00,weatherlink.com 1.10,2013-10-21 12:25:00,
2013-10-21 08:40:00,48.5,44.0,29.92,SSW,203,7.0,10.0,83,0.00,,,0.00,weatherlink.com 1.10,2013-10-21 12:40:00,
2013-10-21 08:56:00,49.1,44.0,29.92,WSW,237,11.0,11.0,82,0.00,,,0.00,weatherlink.com 1.10,2013-10-21 12:56:00,
2013-10-21 09:12:00,50.0,44.0,29.93,South,191,4.0,11.0,81,0.00,,,0.00,weatherlink.com 1.10,2013-10-21 13:12:00,
2013-10-21 09:27:00,50.4,44.0,29.93,WSW,241,6.0,13.0,80,0.00,,,0.00,weatherlink.com 1.10,2013-10-21 13:27:00,
2013-10-21 09:42:00,50.7,44.0,29.92,SSW,204,7.0,13.0,79,0.00,,,0.00,weatherlink.com 1.10,2013-10-21 13:42:00,
2013-10-21 09:57:00,51.4,45.0,29.93,SW,216,3.0,12.0,79,0.00,,,0.00,weatherlink.com 1.10,2013-10-21 13:57:00,
2013-10-21 10:12:00,52.2,45.0,29.92,SSW,210,8.0,13.0,77,0.00,,,0.00,weatherlink.com 1.10,2013-10-21 14:12:00,
2013-10-21 10:27:00,52.3,45.0,29.92,SSW,208,7.0,11.0,77,0.00,,,0.00,weatherlink.com 1.10,2013-10-21 14:27:00,
2013-10-21 10:43:00,52.7,45.0,29.92,WSW,244,7.0,18.0,76,0.00,,,0.00,weatherlink.com 1.10,2013-10-21 14:43:00,
2013-10-21 10:59:00,53.2,46.0,29.91,SW,230,6.0,12.0,77,0.00,,,0.00,weatherlink.com 1.10,2013-10-21 14:59:00,
2013-10-21 11:28:00,54.3,47.0,29.91,West,273,7.0,11.0,76,0.00,,,0.00,weatherlink.com 1.10,2013-10-21 15:28:00,
2013-10-21 11:45:00,55.7,48.0,29.91,SW,223,6.0,13.0,74,0.00,,,0.00,weatherlink.com 1.10,2013-10-21 15:45:00,
2013-10-21 12:00:00,56.7,48.0,29.91,SW,224,6.0,16.0,73,0.00,,,0.00,weatherlink.com 1.10,2013-10-21 16:00:00,
2013-10-21 12:15:00,56.4,47.0,29.91,WNW,286,3.0,14.0,72,0.00,,,0.00,weatherlink.com 1.10,2013-10-21 16:15:00,
2013-10-21 12:30:00,55.8,47.0,29.91,West,276,10.0,12.0,73,0.00,,,0.00,weatherlink.com 1.10,2013-10-21 16:30:00,
2013-10-21 12:45:00,55.9,48.0,29.91,SW,236,6.0,13.0,74,0.00,,,0.00,weatherlink.com 1.10,2013-10-21 16:45:00,
2013-10-21 13:00:00,55.7,48.0,29.91,West,268,6.0,13.0,74,0.00,,,0.00,weatherlink.com 1.10,2013-10-21 17:00:00,
2013-10-21 13:15:00,55.8,47.0,29.90,West,269,10.0,13.0,73,0.00,,,0.00,weatherlink.com 1.10,2013-10-21 17:15:00,
2013-10-21 13:30:00,55.5,47.0,29.90,SW,223,8.0,14.0,74,0.00,,,0.00,weatherlink.com 1.10,2013-10-21 17:30:00,
2013-10-21 13:46:00,54.6,47.0,29.90,West,263,5.0,11.0,76,0.00,,,0.00,weatherlink.com 1.10,2013-10-21 17:46:00,
2013-10-21 14:01:00,54.1,47.0,29.89,WNW,289,8.0,11.0,77,0.00,,,0.00,weatherlink.com 1.10,2013-10-21 18:01:00,
2013-10-21 14:17:00,53.7,47.0,29.89,WNW,288,7.0,9.0,79,0.00,,,0.00,weatherlink.com 1.10,2013-10-21 18:17:00,
2013-10-21 14:31:00,53.3,47.0,29.88,West,277,5.0,10.0,80,0.00,,,0.00,weatherlink.com 1.10,2013-10-21 18:31:00,
2013-10-21 14:47:00,53.1,47.0,29.88,West,268,3.0,10.0,80,0.00,,,0.00,weatherlink.com 1.10,2013-10-21 18:47:00,
2013-10-21 15:02:00,52.8,47.0,29.89,West,266,2.0,9.0,81,0.00,,,0.00,weatherlink.com 1.10,2013-10-21 19:02:00,
2013-10-21 15:17:00,52.3,48.0,29.88,WSW,237,2.0,11.0,84,0.00,,,0.00,weatherlink.com 1.10,2013-10-21 19:17:00,
2013-10-21 15:32:00,51.8,47.0,29.89,WNW,300,5.0,11.0,84,0.00,,,0.00,weatherlink.com 1.10,2013-10-21 19:32:00,
2013-10-21 15:48:00,51.5,47.0,29.89,WNW,290,3.0,12.0,85,0.00,,,0.00,weatherlink.com 1.10,2013-10-21 19:48:00,
2013-10-21 16:04:00,51.2,48.0,29.88,WNW,286,5.0,11.0,87,0.00,,,0.00,weatherlink.com 1.10,2013-10-21 20:04:00,
2013-10-21 16:18:00,51.0,48.0,29.88,WSW,256,4.0,8.0,89,0.00,,,0.00,weatherlink.com 1.10,2013-10-21 20:18:00,
2013-10-21 16:33:00,51.0,48.0,29.88,WSW,238,2.0,10.0,90,0.00,,,0.00,weatherlink.com 1.10,2013-10-21 20:33:00,
2013-10-21 16:49:00,50.7,48.0,29.88,West,262,4.0,10.0,90,0.00,,,0.00,weatherlink.com 1.10,2013-10-21 20:49:00,
2013-10-21 17:04:00,50.5,48.0,29.88,WSW,248,2.0,8.0,91,0.00,,,0.00,weatherlink.com 1.10,2013-10-21 21:04:00,
2013-10-21 17:20:00,50.4,48.0,29.89,West,271,8.0,16.0,91,0.01,,,0.01,weatherlink.com 1.10,2013-10-21 21:20:00,
2013-10-21 17:35:00,49.9,47.0,29.90,West,267,6.0,13.0,90,0.01,,,0.01,weatherlink.com 1.10,2013-10-21 21:35:00,
2013-10-21 17:50:00,49.1,45.0,29.90,West,277,8.0,11.0,87,0.01,,,0.01,weatherlink.com 1.10,2013-10-21 21:50:00,
2013-10-21 18:05:00,49.0,46.0,29.91,West,275,8.0,14.0,88,0.01,,,0.01,weatherlink.com 1.10,2013-10-21 22:05:00,
2013-10-21 18:20:00,48.7,45.0,29.91,West,279,9.0,14.0,86,0.00,,,0.01,weatherlink.com 1.10,2013-10-21 22:20:00,
2013-10-21 18:35:00,48.2,44.0,29.92,WNW,291,7.0,12.0,85,0.00,,,0.01,weatherlink.com 1.10,2013-10-21 22:35:00,
2013-10-21 18:50:00,47.9,44.0,29.92,West,275,4.0,11.0,85,0.00,,,0.01,weatherlink.com 1.10,2013-10-21 22:50:00,
2013-10-21 19:06:00,47.5,42.0,29.93,WNW,286,5.0,12.0,82,0.00,,,0.01,weatherlink.com 1.10,2013-10-21 23:06:00,
2013-10-21 19:21:00,47.2,42.0,29.93,West,260,5.0,10.0,82,0.00,,,0.01,weatherlink.com 1.10,2013-10-21 23:21:00,
2013-10-21 19:36:00,47.0,41.0,29.93,WNW,296,2.0,9.0,81,0.00,,,0.01,weatherlink.com 1.10,2013-10-21 23:36:00,
2013-10-21 19:52:00,46.5,41.0,29.93,WSW,252,3.0,10.0,81,0.00,,,0.01,weatherlink.com 1.10,2013-10-21 23:52:00,
2013-10-21 20:07:00,45.9,40.0,29.94,West,260,2.0,6.0,81,0.00,,,0.01,weatherlink.com 1.10,2013-10-22 00:07:00,
2013-10-21 20:22:00,45.2,40.0,29.94,West,260,5.0,6.0,81,0.00,,,0.01,weatherlink.com 1.10,2013-10-22 00:22:00,
2013-10-21 20:37:00,44.7,39.0,29.94,West,279,2.0,7.0,81,0.00,,,0.01,weatherlink.com 1.10,2013-10-22 00:37:00,
2013-10-21 20:52:00,44.0,39.0,29.94,WNW,285,2.0,4.0,82,0.00,,,0.01,weatherlink.com 1.10,2013-10-22 00:52:00,
2013-10-21 21:07:00,43.2,38.0,29.94,WNW,285,2.0,4.0,83,0.00,,,0.01,weatherlink.com 1.10,2013-10-22 01:07:00,
2013-10-21 21:23:00,42.7,38.0,29.94,West,277,4.0,6.0,83,0.00,,,0.01,weatherlink.com 1.10,2013-10-22 01:23:00,
2013-10-21 21:38:00,42.5,37.0,29.94,West,260,4.0,6.0,82,0.00,,,0.01,weatherlink.com 1.10,2013-10-22 01:38:00,
2013-10-21 21:54:00,42.2,37.0,29.95,West,270,0.0,5.0,81,0.00,,,0.01,weatherlink.com 1.10,2013-10-22 01:54:00,
2013-10-21 22:08:00,41.6,37.0,29.95,WNW,294,3.0,6.0,82,0.00,,,0.01,weatherlink.com 1.10,2013-10-22 02:08:00,
2013-10-21 22:25:00,41.5,36.0,29.96,WNW,292,3.0,7.0,81,0.00,,,0.01,weatherlink.com 1.10,2013-10-22 02:25:00,
2013-10-21 22:39:00,41.7,36.0,29.97,NW,309,3.0,12.0,79,0.00,,,0.01,weatherlink.com 1.10,2013-10-22 02:39:00,
2013-10-21 22:55:00,41.6,34.0,29.97,WSW,252,5.0,10.0,75,0.00,,,0.01,weatherlink.com 1.10,2013-10-22 02:55:00,
2013-10-21 23:10:00,41.3,34.0,29.97,WNW,284,4.0,11.0,74,0.00,,,0.01,weatherlink.com 1.10,2013-10-22 03:10:00,
2013-10-21 23:25:00,40.4,33.0,29.97,WNW,296,3.0,8.0,75,0.00,,,0.01,weatherlink.com 1.10,2013-10-22 03:25:00,
2013-10-21 23:40:00,39.9,32.0,29.97,WNW,293,3.0,9.0,74,0.00,,,0.01,weatherlink.com 1.10,2013-10-22 03:40:00,
2013-10-21 23:55:00,39.2,32.0,29.97,NW,311,2.0,7.0,74,0.00,,,0.01,weatherlink.com 1.10,2013-10-22 03:55:00,